Time,TemperatureF,DewpointF,PressureIn,WindDirection,WindDirectionDegrees,WindSpeedMPH,WindSpeedGustMPH,Humidity,HourlyPrecipIn,Conditions,Clouds,dailyrainin,SoftwareType,DateUTC
2013-03-17 00:04:00,41.5,10.8,30.03,NNW,343,0.0,3.0,28,0.00,,,0.00,WeatherDisplay:10.37,2013-03-17 07:04:00,
2013-03-17 00:09:00,41.5,10.8,30.03,NNE,16,0.0,0.0,28,0.00,,,0.00,WeatherDisplay:10.37,2013-03-17 07:09:00,
2013-03-17 00:19:00,41.4,10.6,30.03,NNE,18,0.0,0.0,28,0.00,,,0.00,WeatherDisplay:10.37,2013-03-17 07:19:00,
2013-03-17 00:29:00,41.5,10.8,30.03,North,355,0.0,4.0,28,0.00,,,0.00,WeatherDisplay:10.37,2013-03-17 07:29:00,
2013-03-17 00:39:00,41.9,11.1,30.03,NW,324,0.0,4.0,28,0.00,,,0.00,WeatherDisplay:10.37,2013-03-17 07:39:00,
2013-03-17 00:44:00,42.1,11.3,30.03,NNW,336,0.0,0.0,28,0.00,,,0.00,WeatherDisplay:10.37,2013-03-17 07:44:00,
2013-03-17 00:49:00,42.1,11.3,30.03,NNW,332,0.0,0.0,28,0.00,,,0.00,WeatherDisplay:10.37,2013-03-17 07:49:00,
2013-03-17 00:59:00,42.4,9.9,30.03,NNW,348,0.0,0.0,26,0.00,,,0.00,WeatherDisplay:10.37,2013-03-17 07:59:00,
2013-03-17 01:04:00,42.3,9.8,30.03,North,353,0.0,0.0,26,0.00,,,0.00,WeatherDisplay:10.37,2013-03-17 08:04:00,
2013-03-17 01:09:00,42.4,9.9,30.03,North,355,0.0,0.0,26,0.00,,,0.00,WeatherDisplay:10.37,2013-03-17 08:09:00,
2013-03-17 01:19:00,42.6,10.1,30.03,NNE,20,0.0,0.0,26,0.00,,,0.00,WeatherDisplay:10.37,2013-03-17 08:19:00,
2013-03-17 01:24:00,42.8,9.3,30.03,North,3,0.0,3.0,25,0.00,,,0.00,WeatherDisplay:10.37,2013-03-17 08:24:00,
2013-03-17 01:29:00,42.8,9.3,30.03,NNW,340,0.0,0.0,25,0.00,,,0.00,WeatherDisplay:10.37,2013-03-17 08:29:00,
2013-03-17 01:34:00,42.8,9.3,30.03,North,353,0.0,4.0,25,0.00,,,0.00,WeatherDisplay:10.37,2013-03-17 08:34:00,
2013-03-17 01:39:00,42.9,9.5,30.03,North,10,0.0,4.0,25,0.00,,,0.00,WeatherDisplay:10.37,2013-03-17 08:39:00,
2013-03-17 01:49:00,42.8,9.3,30.03,NNW,346,0.0,2.0,25,0.00,,,0.00,WeatherDisplay:10.37,2013-03-17 08:49:00,
2013-03-17 01:54:00,42.8,9.3,30.03,North,357,0.0,0.0,25,0.00,,,0.00,WeatherDisplay:10.37,2013-03-17 08:54:00,
2013-03-17 01:59:00,42.8,9.3,30.03,North,4,0.0,0.0,25,0.00,,,0.00,WeatherDisplay:10.37,2013-03-17 08:59:00,
2013-03-17 02:04:00,42.8,9.3,30.03,North,360,0.0,0.0,25,0.00,,,0.00,WeatherDisplay:10.37,2013-03-17 09:04:00,
2013-03-17 02:09:00,42.8,11.9,30.03,NNW,332,0.0,4.0,28,0.00,,,0.00,WeatherDisplay:10.37,2013-03-17 09:09:00,
2013-03-17 02:14:00,42.8,10.2,30.03,NW,306,0.0,0.0,26,0.00,,,0.00,WeatherDisplay:10.37,2013-03-17 09:14:00,
2013-03-17 02:24:00,43.0,12.0,30.03,NW,326,2.0,6.0,28,0.00,,,0.00,WeatherDisplay:10.37,2013-03-17 09:24:00,
2013-03-17 02:29:00,43.0,12.0,30.03,NW,304,5.0,8.0,28,0.00,,,0.00,WeatherDisplay:10.37,2013-03-17 09:29:00,
2013-03-17 02:34:00,42.8,12.7,30.03,NW,306,2.0,9.0,29,0.00,,,0.00,WeatherDisplay:10.37,2013-03-17 09:34:00,
2013-03-17 02:39:00,42.4,13.1,30.03,NW,309,3.0,6.0,30,0.00,,,0.00,WeatherDisplay:10.37,2013-03-17 09:39:00,
2013-03-17 02:49:00,41.5,15.2,30.03,NW,313,3.0,6.0,34,0.00,,,0.00,WeatherDisplay:10.37,2013-03-17 09:49:00,
2013-03-17 02:54:00,41.0,17.3,30.03,NW,322,0.0,6.0,38,0.00,,,0.00,WeatherDisplay:10.37,2013-03-17 09:54:00,
2013-03-17 02:59:00,40.3,17.2,30.03,NNW,332,0.0,0.0,39,0.00,,,0.00,WeatherDisplay:10.37,2013-03-17 09:59:00,
2013-03-17 03:04:00,39.7,17.3,30.03,North,351,0.0,4.0,40,0.00,,,0.00,WeatherDisplay:10.37,2013-03-17 10:04:00,
2013-03-17 03:09:00,39.4,18.2,30.03,NNW,347,0.0,4.0,42,0.00,,,0.00,WeatherDisplay:10.37,2013-03-17 10:09:00,
2013-03-17 03:19:00,39.4,18.2,30.03,NW,319,0.0,0.0,42,0.00,,,0.00,WeatherDisplay:10.37,2013-03-17 10:19:00,
2013-03-17 03:24:00,39.4,18.7,30.03,NW,321,0.0,3.0,43,0.00,,,0.00,WeatherDisplay:10.37,2013-03-17 10:24:00,
2013-03-17 03:29:00,39.4,18.7,30.03,NW,319,2.0,4.0,43,0.00,,,0.00,WeatherDisplay:10.37,2013-03-17 10:29:00,
2013-03-17 03:34:00,39.2,19.1,30.03,NW,319,0.0,0.0,44,0.00,,,0.00,WeatherDisplay:10.37,2013-03-17 10:34:00,
2013-03-17 03:39:00,39.2,17.4,30.03,NW,317,0.0,3.0,41,0.00,,,0.00,WeatherDisplay:10.37,2013-03-17 10:39:00,
2013-03-17 03:44:00,39.4,17.0,30.03,NW,319,0.0,6.0,40,0.00,,,0.00,WeatherDisplay:10.37,2013-03-17 10:44:00,
2013-03-17 03:49:00,39.7,16.8,30.03,NNW,329,0.0,6.0,39,0.00,,,0.00,WeatherDisplay:10.37,2013-03-17 10:49:00,
2013-03-17 03:54:00,39.9,16.9,30.03,NNW,336,0.0,4.0,39,0.00,,,0.00,WeatherDisplay:10.37,2013-03-17 10:54:00,
2013-03-17 03:59:00,40.3,16.7,30.03,NNW,346,0.0,4.0,38,0.00,,,0.00,WeatherDisplay:10.37,2013-03-17 10:59:00,
2013-03-17 04:04:00,40.3,16.7,30.03,NNW,333,0.0,0.0,38,0.00,,,0.00,WeatherDisplay:10.37,2013-03-17 11:04:00,
2013-03-17 04:09:00,40.3,16.0,30.03,NW,312,0.0,3.0,37,0.00,,,0.00,WeatherDisplay:10.37,2013-03-17 11:09:00,
2013-03-17 04:14:00,40.3,15.4,30.03,NW,305,0.0,3.0,36,0.00,,,0.00,WeatherDisplay:10.37,2013-03-17 11:14:00,
2013-03-17 04:19:00,40.3,15.4,30.03,NW,306,0.0,4.0,36,0.00,,,0.00,WeatherDisplay:10.37,2013-03-17 11:19:00,
2013-03-17 04:29:00,39.9,15.1,30.03,WNW,290,0.0,3.0,36,0.00,,,0.00,WeatherDisplay:10.37,2013-03-17 11:29:00,
2013-03-17 04:39:00,39.2,14.4,30.03,WNW,297,2.0,4.0,36,0.00,,,0.00,WeatherDisplay:10.37,2013-03-17 11:39:00,
2013-03-17 04:44:00,39.2,14.4,30.03,WNW,291,2.0,4.0,36,0.00,,,0.00,WeatherDisplay:10.37,2013-03-17 11:44:00,
2013-03-17 04:49:00,39.0,14.3,30.03,WNW,293,0.0,3.0,36,0.00,,,0.00,WeatherDisplay:10.37,2013-03-17 11:49:00,
2013-03-17 04:54:00,38.7,14.6,30.03,WNW,299,0.0,0.0,37,0.00,,,0.00,WeatherDisplay:10.37,2013-03-17 11:54:00,
2013-03-17 04:59:00,38.3,14.3,30.03,WNW,302,0.0,0.0,37,0.00,,,0.00,WeatherDisplay:10.37,2013-03-17 11:59:00,
2013-03-17 05:04:00,38.1,14.7,30.03,NW,313,0.0,0.0,38,0.00,,,0.00,WeatherDisplay:10.37,2013-03-17 12:04:00,
2013-03-17 05:09:00,38.1,14.7,30.03,NW,319,0.0,3.0,38,0.00,,,0.00,WeatherDisplay:10.37,2013-03-17 12:09:00,
2013-03-17 05:14:00,38.1,15.3,30.00,NW,311,0.0,4.0,39,0.00,,,0.00,WeatherDisplay:10.37,2013-03-17 12:14:00,
2013-03-17 05:19:00,38.4,15.6,30.00,NW,308,3.0,6.0,39,0.00,,,0.00,WeatherDisplay:10.37,2013-03-17 12:19:00,
2013-03-17 05:24:00,38.8,15.9,30.00,NW,310,2.0,6.0,39,0.00,,,0.00,WeatherDisplay:10.37,2013-03-17 12:24:00,
2013-03-17 05:29:00,39.0,16.1,30.00,WNW,300,3.0,5.0,39,0.00,,,0.00,WeatherDisplay:10.37,2013-03-17 12:29:00,
2013-03-17 05:34:00,39.0,16.1,30.00,WNW,296,3.0,6.0,39,0.00,,,0.00,WeatherDisplay:10.37,2013-03-17 12:34:00,
2013-03-17 05:39:00,38.7,15.8,30.00,NW,321,0.0,8.0,39,0.00,,,0.00,WeatherDisplay:10.37,2013-03-17 12:39:00,
2013-03-17 05:49:00,38.1,15.3,30.03,NNW,342,0.0,3.0,39,0.00,,,0.00,WeatherDisplay:10.37,2013-03-17 12:49:00,
2013-03-17 05:54:00,37.9,15.1,30.03,North,349,0.0,3.0,39,0.00,,,0.00,WeatherDisplay:10.37,2013-03-17 12:54:00,
2013-03-17 05:59:00,37.6,14.8,30.03,North,357,0.0,3.0,39,0.00,,,0.00,WeatherDisplay:10.37,2013-03-17 12:59:00,
2013-03-17 06:04:00,37.6,14.8,30.03,North,359,0.0,4.0,39,0.00,,,0.00,WeatherDisplay:10.37,2013-03-17 13:04:00,
2013-03-17 06:09:00,37.4,14.7,30.03,North,355,0.0,4.0,39,0.00,,,0.00,WeatherDisplay:10.37,2013-03-17 13:09:00,
2013-03-17 06:14:00,37.4,14.7,30.03,NNW,338,0.0,3.0,39,0.00,,,0.00,WeatherDisplay:10.37,2013-03-17 13:14:00,
2013-03-17 06:19:00,37.6,14.2,30.03,NNW,331,0.0,4.0,38,0.00,,,0.00,WeatherDisplay:10.37,2013-03-17 13:19:00,
2013-03-17 06:29:00,37.4,13.5,30.03,NNW,327,0.0,3.0,37,0.00,,,0.00,WeatherDisplay:10.37,2013-03-17 13:29:00,
2013-03-17 06:39:00,37.4,13.5,30.03,WNW,303,0.0,6.0,37,0.00,,,0.00,WeatherDisplay:10.37,2013-03-17 13:39:00,
2013-03-17 06:49:00,37.0,14.3,30.03,NNW,334,2.0,7.0,39,0.00,,,0.00,WeatherDisplay:10.37,2013-03-17 13:49:00,
2013-03-17 06:59:00,37.2,14.5,30.03,NNE,30,0.0,6.0,39,0.00,,,0.00,WeatherDisplay:10.37,2013-03-17 13:59:00,
2013-03-17 07:04:00,37.5,14.8,30.03,ENE,70,0.0,5.0,39,0.00,,,0.00,WeatherDisplay:10.37,2013-03-17 14:04:00,
2013-03-17 07:09:00,37.8,15.0,30.03,East,83,0.0,6.0,39,0.00,,,0.00,WeatherDisplay:10.37,2013-03-17 14:09:00,
2013-03-17 07:14:00,37.8,15.0,30.03,ENE,78,0.0,0.0,39,0.00,,,0.00,WeatherDisplay:10.37,2013-03-17 14:14:00,
2013-03-17 07:19:00,37.8,15.0,30.03,NE,49,0.0,5.0,39,0.00,,,0.00,WeatherDisplay:10.37,2013-03-17 14:19:00,
2013-03-17 07:29:00,38.1,15.3,30.03,North,7,2.0,4.0,39,0.00,,,0.00,WeatherDisplay:10.37,2013-03-17 14:29:00,
2013-03-17 07:34:00,37.9,15.1,30.03,NNW,329,0.0,4.0,39,0.00,,,0.00,WeatherDisplay:10.37,2013-03-17 14:34:00,
2013-03-17 07:39:00,38.1,15.3,30.03,NW,319,0.0,0.0,39,0.00,,,0.00,WeatherDisplay:10.37,2013-03-17 14:39:00,
2013-03-17 07:44:00,38.3,15.5,30.03,NNW,327,0.0,4.0,39,0.00,,,0.00,WeatherDisplay:10.37,2013-03-17 14:44:00,
2013-03-17 07:49:00,38.7,15.8,30.03,North,3,0.0,3.0,39,0.00,,,0.00,WeatherDisplay:10.37,2013-03-17 14:49:00,
2013-03-17 07:54:00,39.2,16.3,30.03,NNW,336,0.0,3.0,39,0.00,,,0.00,WeatherDisplay:10.37,2013-03-17 14:54:00,
2013-03-17 08:04:00,39.8,16.8,30.03,SW,215,0.0,6.0,39,0.00,,,0.00,WeatherDisplay:10.37,2013-03-17 15:04:00,
2013-03-17 08:09:00,40.2,16.6,30.03,WSW,258,0.0,6.0,38,0.00,,,0.00,WeatherDisplay:10.37,2013-03-17 15:09:00,
2013-03-17 08:14:00,40.5,16.2,30.06,NW,307,0.0,0.0,37,0.00,,,0.00,WeatherDisplay:10.37,2013-03-17 15:14:00,
2013-03-17 08:24:00,41.7,17.3,30.06,NNW,336,0.0,0.0,37,0.00,,,0.00,WeatherDisplay:10.37,2013-03-17 15:24:00,
2013-03-17 08:29:00,42.2,17.1,30.06,NW,304,0.0,3.0,36,0.00,,,0.00,WeatherDisplay:10.37,2013-03-17 15:29:00,
2013-03-17 08:34:00,42.7,17.5,30.06,WSW,258,0.0,5.0,36,0.00,,,0.00,WeatherDisplay:10.37,2013-03-17 15:34:00,
2013-03-17 08:39:00,43.4,17.5,30.06,West,259,0.0,2.0,35,0.00,,,0.00,WeatherDisplay:10.37,2013-03-17 15:39:00,
2013-03-17 08:44:00,44.2,18.3,30.06,West,279,0.0,0.0,35,0.00,,,0.00,WeatherDisplay:10.37,2013-03-17 15:44:00,
2013-03-17 08:49:00,45.2,19.2,30.06,West,280,0.0,0.0,35,0.00,,,0.00,WeatherDisplay:10.37,2013-03-17 15:49:00,
2013-03-17 08:54:00,46.5,19.6,30.06,West,281,0.0,0.0,34,0.00,,,0.00,WeatherDisplay:10.37,2013-03-17 15:54:00,
2013-03-17 08:59:00,47.6,19.8,30.06,West,281,0.0,0.0,33,0.00,,,0.00,WeatherDisplay:10.37,2013-03-17 15:59:00,
2013-03-17 09:04:00,48.4,19.1,30.06,West,281,0.0,0.0,31,0.00,,,0.00,WeatherDisplay:10.37,2013-03-17 16:04:00,
2013-03-17 09:09:00,49.0,19.7,30.06,West,278,0.0,0.0,31,0.00,,,0.00,WeatherDisplay:10.37,2013-03-17 16:09:00,
2013-03-17 09:14:00,50.7,20.4,30.06,WSW,244,0.0,0.0,30,0.00,,,0.00,WeatherDisplay:10.37,2013-03-17 16:14:00,
2013-03-17 09:19:00,52.0,20.7,30.06,SSW,201,0.0,0.0,29,0.00,,,0.00,WeatherDisplay:10.37,2013-03-17 16:19:00,
2013-03-17 09:24:00,53.5,21.9,30.06,South,174,0.0,0.0,29,0.00,,,0.00,WeatherDisplay:10.37,2013-03-17 16:24:00,
2013-03-17 09:29:00,54.9,22.4,30.06,South,182,0.0,0.0,28,0.00,,,0.00,WeatherDisplay:10.37,2013-03-17 16:29:00,
2013-03-17 09:39:00,56.7,22.1,30.06,SSW,197,0.0,0.0,26,0.00,,,0.00,WeatherDisplay:10.37,2013-03-17 16:39:00,
2013-03-17 09:44:00,57.2,21.6,30.06,SSW,211,0.0,0.0,25,0.00,,,0.00,WeatherDisplay:10.37,2013-03-17 16:44:00,
2013-03-17 09:54:00,58.4,22.7,30.06,SSW,196,0.0,0.0,25,0.00,,,0.00,WeatherDisplay:10.37,2013-03-17 16:54:00,
2013-03-17 09:59:00,59.1,22.3,30.06,South,175,0.0,3.0,24,0.00,,,0.00,WeatherDisplay:10.37,2013-03-17 16:59:00,
2013-03-17 10:04:00,59.5,22.7,30.06,South,190,0.0,0.0,24,0.00,,,0.00,WeatherDisplay:10.37,2013-03-17 17:04:00,
2013-03-17 10:09:00,60.1,23.2,30.06,SW,220,0.0,0.0,24,0.00,,,0.00,WeatherDisplay:10.37,2013-03-17 17:09:00,
2013-03-17 10:14:00,61.0,23.9,30.06,SSE,166,0.0,0.0,24,0.00,,,0.00,WeatherDisplay:10.37,2013-03-17 17:14:00,
2013-03-17 10:19:00,61.7,24.5,30.06,East,95,0.0,3.0,24,0.00,,,0.00,WeatherDisplay:10.37,2013-03-17 17:19:00,
2013-03-17 10:24:00,62.6,24.2,30.06,NNE,30,0.0,3.0,23,0.00,,,0.00,WeatherDisplay:10.37,2013-03-17 17:24:00,
2013-03-17 10:29:00,63.3,22.7,30.06,WNW,300,0.0,3.0,21,0.00,,,0.00,WeatherDisplay:10.37,2013-03-17 17:29:00,
2013-03-17 10:39:00,65.1,23.0,30.06,SSE,157,0.0,0.0,20,0.00,,,0.00,WeatherDisplay:10.37,2013-03-17 17:39:00,
2013-03-17 10:44:00,65.8,21.1,30.06,South,183,2.0,5.0,18,0.00,,,0.00,WeatherDisplay:10.37,2013-03-17 17:44:00,
2013-03-17 10:49:00,66.4,20.2,30.06,West,274,3.0,6.0,17,0.00,,,0.00,WeatherDisplay:10.37,2013-03-17 17:49:00,
2013-03-17 10:54:00,66.2,20.0,30.06,NNE,13,0.0,8.0,17,0.00,,,0.00,WeatherDisplay:10.37,2013-03-17 17:54:00,
2013-03-17 10:59:00,66.0,17.0,30.06,NNE,28,5.0,8.0,15,0.00,,,0.00,WeatherDisplay:10.37,2013-03-17 17:59:00,
2013-03-17 11:04:00,66.0,17.0,30.06,NNE,23,2.0,8.0,15,0.00,,,0.00,WeatherDisplay:10.37,2013-03-17 18:04:00,
2013-03-17 11:09:00,66.2,18.6,30.06,North,8,0.0,6.0,16,0.00,,,0.00,WeatherDisplay:10.37,2013-03-17 18:09:00,
2013-03-17 11:19:00,66.1,17.1,30.06,North,8,2.0,9.0,15,0.00,,,0.00,WeatherDisplay:10.37,2013-03-17 18:19:00,
2013-03-17 11:29:00,65.8,16.8,30.06,NNE,28,3.0,8.0,15,0.00,,,0.00,WeatherDisplay:10.37,2013-03-17 18:29:00,
2013-03-17 11:34:00,65.8,16.8,30.06,NNE,24,5.0,9.0,15,0.00,,,0.00,WeatherDisplay:10.37,2013-03-17 18:34:00,
2013-03-17 11:39:00,65.5,16.5,30.06,NNE,13,2.0,9.0,15,0.00,,,0.00,WeatherDisplay:10.37,2013-03-17 18:39:00,
2013-03-17 11:44:00,64.8,16.0,30.06,North,2,3.0,6.0,15,0.00,,,0.00,WeatherDisplay:10.37,2013-03-17 18:44:00,
2013-03-17 11:49:00,64.6,15.9,30.06,North,355,2.0,10.0,15,0.00,,,0.00,WeatherDisplay:10.37,2013-03-17 18:49:00,
2013-03-17 11:59:00,65.1,16.3,30.06,NNW,347,5.0,6.0,15,0.00,,,0.00,WeatherDisplay:10.37,2013-03-17 18:59:00,
2013-03-17 12:04:00,65.2,16.3,30.06,North,6,3.0,8.0,15,0.00,,,0.00,WeatherDisplay:10.37,2013-03-17 19:04:00,
2013-03-17 12:09:00,65.1,16.2,30.06,North,8,2.0,6.0,15,0.00,,,0.00,WeatherDisplay:10.37,2013-03-17 19:09:00,
2013-03-17 12:19:00,65.2,16.3,30.06,North,351,0.0,8.0,15,0.00,,,0.00,WeatherDisplay:10.37,2013-03-17 19:19:00,
2013-03-17 12:29:00,64.8,16.0,30.06,NW,314,0.0,6.0,15,0.00,,,0.00,WeatherDisplay:10.37,2013-03-17 19:29:00,
2013-03-17 12:34:00,64.8,16.0,30.06,NNW,328,3.0,8.0,15,0.00,,,0.00,WeatherDisplay:10.37,2013-03-17 19:34:00,
2013-03-17 12:39:00,64.2,17.0,30.06,North,9,3.0,6.0,16,0.00,,,0.00,WeatherDisplay:10.37,2013-03-17 19:39:00,
2013-03-17 12:44:00,63.9,16.7,30.06,NE,42,2.0,6.0,16,0.00,,,0.00,WeatherDisplay:10.37,2013-03-17 19:44:00,
2013-03-17 12:49:00,64.4,15.7,30.06,North,351,0.0,6.0,15,0.00,,,0.00,WeatherDisplay:10.37,2013-03-17 19:49:00,
2013-03-17 12:54:00,64.6,15.8,30.06,NNW,342,2.0,6.0,15,0.00,,,0.00,WeatherDisplay:10.37,2013-03-17 19:54:00,
2013-03-17 12:59:00,64.4,15.7,30.06,NNE,17,0.0,7.0,15,0.00,,,0.00,WeatherDisplay:10.37,2013-03-17 19:59:00,
2013-03-17 13:04:00,64.8,16.0,30.06,NNE,24,0.0,8.0,15,0.00,,,0.00,WeatherDisplay:10.37,2013-03-17 20:04:00,
2013-03-17 13:09:00,64.4,15.7,30.06,NE,55,0.0,5.0,15,0.00,,,0.00,WeatherDisplay:10.37,2013-03-17 20:09:00,
2013-03-17 13:19:00,64.6,15.8,30.06,WSW,255,0.0,4.0,15,0.00,,,0.00,WeatherDisplay:10.37,2013-03-17 20:19:00,
2013-03-17 13:24:00,64.6,15.8,30.06,West,280,2.0,6.0,15,0.00,,,0.00,WeatherDisplay:10.37,2013-03-17 20:24:00,
2013-03-17 13:29:00,64.4,15.7,30.06,West,280,3.0,8.0,15,0.00,,,0.00,WeatherDisplay:10.37,2013-03-17 20:29:00,
2013-03-17 13:34:00,64.0,16.9,30.06,West,281,0.0,4.0,16,0.00,,,0.00,WeatherDisplay:10.37,2013-03-17 20:34:00,
2013-03-17 13:39:00,64.0,16.9,30.06,WNW,303,0.0,3.0,16,0.00,,,0.00,WeatherDisplay:10.37,2013-03-17 20:39:00,
2013-03-17 13:44:00,64.2,17.0,30.06,WNW,296,0.0,3.0,16,0.00,,,0.00,WeatherDisplay:10.37,2013-03-17 20:44:00,
2013-03-17 13:49:00,64.8,20.2,30.06,West,278,3.0,6.0,18,0.00,,,0.00,WeatherDisplay:10.37,2013-03-17 20:49:00,
2013-03-17 13:59:00,65.3,20.7,30.06,West,272,5.0,8.0,18,0.00,,,0.00,WeatherDisplay:10.37,2013-03-17 20:59:00,
2013-03-17 14:04:00,65.5,20.8,30.06,West,266,7.0,9.0,18,0.00,,,0.00,WeatherDisplay:10.37,2013-03-17 21:04:00,
2013-03-17 14:09:00,65.5,20.8,30.06,West,275,3.0,6.0,18,0.00,,,0.00,WeatherDisplay:10.37,2013-03-17 21:09:00,
2013-03-17 14:19:00,66.3,20.1,30.03,WNW,291,0.0,6.0,17,0.00,,,0.00,WeatherDisplay:10.37,2013-03-17 21:19:00,
2013-03-17 14:29:00,66.6,20.3,30.03,West,270,2.0,6.0,17,0.00,,,0.00,WeatherDisplay:10.37,2013-03-17 21:29:00,
2013-03-17 14:39:00,66.3,20.2,30.03,West,276,5.0,7.0,17,0.00,,,0.00,WeatherDisplay:10.37,2013-03-17 21:39:00,
2013-03-17 14:44:00,66.7,20.4,30.03,WNW,287,5.0,8.0,17,0.00,,,0.00,WeatherDisplay:10.37,2013-03-17 21:44:00,
2013-03-17 14:49:00,66.6,20.3,30.03,WNW,290,2.0,8.0,17,0.00,,,0.00,WeatherDisplay:10.37,2013-03-17 21:49:00,
2013-03-17 14:54:00,66.7,20.5,30.03,West,280,3.0,8.0,17,0.00,,,0.00,WeatherDisplay:10.37,2013-03-17 21:54:00,
2013-03-17 14:59:00,66.2,20.1,30.03,West,267,5.0,12.0,17,0.00,,,0.00,WeatherDisplay:10.37,2013-03-17 21:59:00,
2013-03-17 15:04:00,65.3,20.7,30.03,West,275,6.0,7.0,18,0.00,,,0.00,WeatherDisplay:10.37,2013-03-17 22:04:00,
2013-03-17 15:09:00,65.1,20.5,30.03,West,268,3.0,8.0,18,0.00,,,0.00,WeatherDisplay:10.37,2013-03-17 22:09:00,
2013-03-17 15:14:00,65.0,20.4,30.03,WSW,256,3.0,6.0,18,0.00,,,0.00,WeatherDisplay:10.37,2013-03-17 22:14:00,
2013-03-17 15:19:00,65.1,20.5,30.03,West,272,2.0,6.0,18,0.00,,,0.00,WeatherDisplay:10.37,2013-03-17 22:19:00,
2013-03-17 15:24:00,64.9,20.4,30.03,West,277,6.0,8.0,18,0.00,,,0.00,WeatherDisplay:10.37,2013-03-17 22:24:00,
2013-03-17 15:29:00,64.5,20.0,30.03,West,273,5.0,8.0,18,0.00,,,0.00,WeatherDisplay:10.37,2013-03-17 22:29:00,
2013-03-17 15:34:00,64.2,19.8,30.03,WNW,288,6.0,9.0,18,0.00,,,0.00,WeatherDisplay:10.37,2013-03-17 22:34:00,
2013-03-17 15:39:00,64.2,19.7,30.03,WNW,287,3.0,10.0,18,0.00,,,0.00,WeatherDisplay:10.37,2013-03-17 22:39:00,
2013-03-17 15:49:00,64.0,19.6,30.03,West,279,5.0,8.0,18,0.00,,,0.00,WeatherDisplay:10.37,2013-03-17 22:49:00,
2013-03-17 15:59:00,63.3,19.0,30.03,WNW,296,3.0,9.0,18,0.00,,,0.00,WeatherDisplay:10.37,2013-03-17 22:59:00,
2013-03-17 16:04:00,63.1,18.9,30.03,West,281,6.0,8.0,18,0.00,,,0.00,WeatherDisplay:10.37,2013-03-17 23:04:00,
2013-03-17 16:09:00,63.0,18.7,30.03,West,274,6.0,8.0,18,0.00,,,0.00,WeatherDisplay:10.37,2013-03-17 23:09:00,
2013-03-17 16:14:00,62.3,19.4,30.03,WNW,302,3.0,9.0,19,0.00,,,0.00,WeatherDisplay:10.37,2013-03-17 23:14:00,
2013-03-17 16:19:00,61.5,18.8,30.03,WNW,299,5.0,7.0,19,0.00,,,0.00,WeatherDisplay:10.37,2013-03-17 23:19:00,
2013-03-17 16:29:00,60.8,18.2,30.03,West,281,3.0,8.0,19,0.00,,,0.00,WeatherDisplay:10.37,2013-03-17 23:29:00,
2013-03-17 16:34:00,61.1,18.4,30.03,West,266,3.0,8.0,19,0.00,,,0.00,WeatherDisplay:10.37,2013-03-17 23:34:00,
2013-03-17 16:39:00,61.3,18.7,30.03,West,276,5.0,9.0,19,0.00,,,0.00,WeatherDisplay:10.37,2013-03-17 23:39:00,
2013-03-17 16:44:00,60.8,18.2,30.03,WNW,283,5.0,8.0,19,0.00,,,0.00,WeatherDisplay:10.37,2013-03-17 23:44:00,
2013-03-17 16:49:00,60.6,18.1,30.03,West,271,3.0,6.0,19,0.00,,,0.00,WeatherDisplay:10.37,2013-03-17 23:49:00,
2013-03-17 16:59:00,60.3,17.8,30.03,WNW,291,2.0,6.0,19,0.00,,,0.00,WeatherDisplay:10.37,2013-03-17 23:59:00,
2013-03-17 17:09:00,59.4,17.0,30.03,West,259,3.0,8.0,19,0.00,,,0.00,WeatherDisplay:10.37,2013-03-18 00:09:00,
2013-03-17 17:14:00,59.2,15.6,30.03,WSW,256,3.0,8.0,18,0.00,,,0.00,WeatherDisplay:10.37,2013-03-18 00:14:00,
2013-03-17 17:19:00,59.0,16.7,30.03,West,281,5.0,8.0,19,0.00,,,0.00,WeatherDisplay:10.37,2013-03-18 00:19:00,
2013-03-17 17:24:00,58.5,13.7,30.03,West,274,5.0,11.0,17,0.00,,,0.00,WeatherDisplay:10.37,2013-03-18 00:24:00,
2013-03-17 17:29:00,58.3,13.6,30.03,WSW,254,2.0,8.0,17,0.00,,,0.00,WeatherDisplay:10.37,2013-03-18 00:29:00,
2013-03-17 17:34:00,58.1,13.4,30.03,West,272,2.0,6.0,17,0.00,,,0.00,WeatherDisplay:10.37,2013-03-18 00:34:00,
2013-03-17 17:39:00,58.1,13.4,30.03,West,274,0.0,6.0,17,0.00,,,0.00,WeatherDisplay:10.37,2013-03-18 00:39:00,
2013-03-17 17:44:00,57.9,13.3,30.03,WSW,256,2.0,4.0,17,0.00,,,0.00,WeatherDisplay:10.37,2013-03-18 00:44:00,
2013-03-17 17:49:00,57.6,13.0,30.03,West,259,0.0,6.0,17,0.00,,,0.00,WeatherDisplay:10.37,2013-03-18 00:49:00,
2013-03-17 17:54:00,57.2,12.7,30.03,West,274,3.0,6.0,17,0.00,,,0.00,WeatherDisplay:10.37,2013-03-18 00:54:00,
2013-03-17 17:59:00,56.8,12.4,30.03,West,277,2.0,6.0,17,0.00,,,0.00,WeatherDisplay:10.37,2013-03-18 00:59:00,
2013-03-17 18:04:00,56.6,12.2,30.03,West,265,5.0,6.0,17,0.00,,,0.00,WeatherDisplay:10.37,2013-03-18 01:04:00,
2013-03-17 18:09:00,56.1,11.8,30.03,West,267,2.0,6.0,17,0.00,,,0.00,WeatherDisplay:10.37,2013-03-18 01:09:00,
2013-03-17 18:19:00,55.2,12.4,30.03,WNW,285,3.0,8.0,18,0.00,,,0.00,WeatherDisplay:10.37,2013-03-18 01:19:00,
2013-03-17 18:24:00,54.8,12.0,30.03,West,271,5.0,6.0,18,0.00,,,0.00,WeatherDisplay:10.37,2013-03-18 01:24:00,
2013-03-17 18:29:00,54.4,11.7,30.03,West,275,3.0,6.0,18,0.00,,,0.00,WeatherDisplay:10.37,2013-03-18 01:29:00,
2013-03-17 18:39:00,53.4,10.9,30.03,West,276,1.0,6.0,18,0.00,,,0.00,WeatherDisplay:10.37,2013-03-18 01:39:00,
2013-03-17 18:49:00,52.3,10.0,30.03,WNW,291,0.0,0.0,18,0.00,,,0.00,WeatherDisplay:10.37,2013-03-18 01:49:00,
2013-03-17 18:59:00,51.2,10.2,30.03,West,278,0.0,0.0,19,0.00,,,0.00,WeatherDisplay:10.37,2013-03-18 01:59:00,
2013-03-17 19:04:00,50.5,9.7,30.03,WNW,296,0.0,0.0,19,0.00,,,0.00,WeatherDisplay:10.37,2013-03-18 02:04:00,
2013-03-17 19:09:00,50.0,9.3,30.03,NW,305,0.0,0.0,19,0.00,,,0.00,WeatherDisplay:10.37,2013-03-18 02:09:00,
2013-03-17 19:19:00,48.8,8.3,30.03,NW,305,0.0,0.0,19,0.00,,,0.00,WeatherDisplay:10.37,2013-03-18 02:19:00,
2013-03-17 19:24:00,48.4,7.9,30.03,NW,305,0.0,0.0,19,0.00,,,0.00,WeatherDisplay:10.37,2013-03-18 02:24:00,
2013-03-17 19:29:00,48.0,7.6,30.03,NW,305,0.0,0.0,19,0.00,,,0.00,WeatherDisplay:10.37,2013-03-18 02:29:00,
2013-03-17 19:39:00,47.2,10.2,30.03,NW,305,0.0,0.0,22,0.00,,,0.00,WeatherDisplay:10.37,2013-03-18 02:39:00,
2013-03-17 19:44:00,46.9,10.0,30.03,NW,305,0.0,0.0,22,0.00,,,0.00,WeatherDisplay:10.37,2013-03-18 02:44:00,
2013-03-17 19:49:00,46.8,9.9,30.03,NW,305,0.0,0.0,22,0.00,,,0.00,WeatherDisplay:10.37,2013-03-18 02:49:00,
2013-03-17 19:54:00,46.8,11.8,30.03,NW,305,0.0,0.0,24,0.00,,,0.00,WeatherDisplay:10.37,2013-03-18 02:54:00,
2013-03-17 19:59:00,46.6,11.7,30.03,NW,305,0.0,0.0,24,0.00,,,0.00,WeatherDisplay:10.37,2013-03-18 02:59:00,
2013-03-17 20:04:00,46.6,14.3,30.03,NW,305,0.0,0.0,27,0.00,,,0.00,WeatherDisplay:10.37,2013-03-18 03:04:00,
2013-03-17 20:09:00,46.6,14.3,30.03,NW,305,0.0,0.0,27,0.00,,,0.00,WeatherDisplay:10.37,2013-03-18 03:09:00,
2013-03-17 20:14:00,46.6,14.3,30.03,NW,305,0.0,0.0,27,0.00,,,0.00,WeatherDisplay:10.37,2013-03-18 03:14:00,
2013-03-17 20:19:00,46.4,14.2,30.03,NW,305,0.0,0.0,27,0.00,,,0.00,WeatherDisplay:10.37,2013-03-18 03:19:00,
2013-03-17 20:24:00,46.2,14.0,30.03,NW,305,0.0,0.0,27,0.00,,,0.00,WeatherDisplay:10.37,2013-03-18 03:24:00,
2013-03-17 20:29:00,46.0,13.9,30.03,NW,305,0.0,0.0,27,0.00,,,0.00,WeatherDisplay:10.37,2013-03-18 03:29:00,
2013-03-17 20:39:00,45.9,14.5,30.03,NW,305,0.0,0.0,28,0.00,,,0.00,WeatherDisplay:10.37,2013-03-18 03:39:00,
2013-03-17 20:44:00,45.5,14.2,30.03,NW,305,0.0,0.0,28,0.00,,,0.00,WeatherDisplay:10.37,2013-03-18 03:44:00,
2013-03-17 20:49:00,45.3,14.1,30.03,NW,305,0.0,0.0,28,0.00,,,0.00,WeatherDisplay:10.37,2013-03-18 03:49:00,
2013-03-17 20:54:00,45.3,14.1,30.03,NW,305,0.0,0.0,28,0.00,,,0.00,WeatherDisplay:10.37,2013-03-18 03:54:00,
2013-03-17 20:59:00,45.3,14.1,30.03,NW,305,0.0,0.0,28,0.00,,,0.00,WeatherDisplay:10.37,2013-03-18 03:59:00,
2013-03-17 21:04:00,45.3,14.1,30.03,NW,305,0.0,0.0,28,0.00,,,0.00,WeatherDisplay:10.37,2013-03-18 04:04:00,
2013-03-17 21:09:00,45.3,14.1,30.03,NW,305,0.0,0.0,28,0.00,,,0.00,WeatherDisplay:10.37,2013-03-18 04:09:00,
2013-03-17 21:14:00,45.1,13.9,30.03,NW,305,0.0,0.0,28,0.00,,,0.00,WeatherDisplay:10.37,2013-03-18 04:14:00,
2013-03-17 21:19:00,45.3,14.1,30.03,NW,305,0.0,0.0,28,0.00,,,0.00,WeatherDisplay:10.37,2013-03-18 04:19:00,
2013-03-17 21:24:00,45.1,13.9,30.03,NW,305,0.0,0.0,28,0.00,,,0.00,WeatherDisplay:10.37,2013-03-18 04:24:00,
2013-03-17 21:29:00,44.9,13.7,30.03,NW,305,0.0,0.0,28,0.00,,,0.00,WeatherDisplay:10.37,2013-03-18 04:29:00,
2013-03-17 21:34:00,44.4,14.1,30.03,NW,305,0.0,0.0,29,0.00,,,0.00,WeatherDisplay:10.37,2013-03-18 04:34:00,
2013-03-17 21:39:00,43.9,13.7,30.03,NW,305,0.0,0.0,29,0.00,,,0.00,WeatherDisplay:10.37,2013-03-18 04:39:00,
2013-03-17 21:44:00,43.7,13.5,30.03,NW,305,0.0,0.0,29,0.00,,,0.00,WeatherDisplay:10.37,2013-03-18 04:44:00,
2013-03-17 21:49:00,43.5,13.3,30.03,NW,308,0.0,0.0,29,0.00,,,0.00,WeatherDisplay:10.37,2013-03-18 04:49:00,
2013-03-17 21:59:00,43.4,13.2,30.03,NW,311,0.0,0.0,29,0.00,,,0.00,WeatherDisplay:10.37,2013-03-18 04:59:00,
2013-03-17 22:04:00,43.7,13.5,30.03,NW,311,0.0,0.0,29,0.00,,,0.00,WeatherDisplay:10.37,2013-03-18 05:04:00,
2013-03-17 22:09:00,44.0,13.7,30.03,NW,311,0.0,0.0,29,0.00,,,0.00,WeatherDisplay:10.37,2013-03-18 05:09:00,
2013-03-17 22:19:00,44.2,13.1,30.03,NW,317,0.0,0.0,28,0.00,,,0.00,WeatherDisplay:10.37,2013-03-18 05:19:00,
2013-03-17 22:29:00,43.9,12.9,30.03,NW,321,0.0,0.0,28,0.00,,,0.00,WeatherDisplay:10.37,2013-03-18 05:29:00,
2013-03-17 22:34:00,43.4,12.4,30.03,NW,321,0.0,0.0,28,0.00,,,0.00,WeatherDisplay:10.37,2013-03-18 05:34:00,
2013-03-17 22:39:00,43.0,12.0,30.03,NW,321,0.0,0.0,28,0.00,,,0.00,WeatherDisplay:10.37,2013-03-18 05:39:00,
2013-03-17 22:44:00,42.8,12.7,30.03,NW,321,0.0,0.0,29,0.00,,,0.00,WeatherDisplay:10.37,2013-03-18 05:44:00,
2013-03-17 22:49:00,42.4,12.4,30.03,NW,321,0.0,0.0,29,0.00,,,0.00,WeatherDisplay:10.37,2013-03-18 05:49:00,
2013-03-17 22:54:00,42.6,12.5,30.03,NW,321,0.0,0.0,29,0.00,,,0.00,WeatherDisplay:10.37,2013-03-18 05:54:00,
2013-03-17 22:59:00,42.4,12.4,30.03,NW,321,0.0,0.0,29,0.00,,,0.00,WeatherDisplay:10.37,2013-03-18 05:59:00,
2013-03-17 23:04:00,42.1,12.1,30.03,NW,321,0.0,0.0,29,0.00,,,0.00,WeatherDisplay:10.37,2013-03-18 06:04:00,
2013-03-17 23:09:00,41.7,11.7,30.03,NW,321,0.0,0.0,29,0.00,,,0.00,WeatherDisplay:10.37,2013-03-18 06:09:00,
2013-03-17 23:19:00,42.1,12.1,30.03,NW,321,0.0,0.0,29,0.00,,,0.00,WeatherDisplay:10.37,2013-03-18 06:19:00,
2013-03-17 23:24:00,42.4,12.4,30.03,NW,321,0.0,0.0,29,0.00,,,0.00,WeatherDisplay:10.37,2013-03-18 06:24:00,
2013-03-17 23:29:00,42.3,12.2,30.03,NW,321,0.0,0.0,29,0.00,,,0.00,WeatherDisplay:10.37,2013-03-18 06:29:00,
2013-03-17 23:34:00,42.3,12.2,30.03,NW,321,0.0,0.0,29,0.00,,,0.00,WeatherDisplay:10.37,2013-03-18 06:34:00,
2013-03-17 23:39:00,42.1,12.1,30.03,NW,321,0.0,0.0,29,0.00,,,0.00,WeatherDisplay:10.37,2013-03-18 06:39:00,
2013-03-17 23:49:00,41.9,11.9,30.03,NW,321,0.0,0.0,29,0.00,,,0.00,WeatherDisplay:10.37,2013-03-18 06:49:00,
2013-03-17 23:59:00,42.4,12.4,30.03,NW,321,0.0,0.0,29,0.00,,,0.00,WeatherDisplay:10.37,2013-03-18 06:59:00,